Regional Weather Roundup
Issued by NWS Charleston, SC

Current Version | Previous Version | Graphics & Text | Print | Product List | Glossary On
Versions: 1 2 3 4 5 6 7 8 9 10 11 12 13 14 15 16 17 18 19 20 21 22 23 24 25 26 27 28 29 30 31 32 33 34 35 36 37 38 39 40 41 42 43 44 45 46 47 48 49 50
000
ASUS42 KCHS 252325
RWRCHS

REGIONAL WEATHER ROUNDUP
NATIONAL WEATHER SERVICE CHARLESTON SC
600 PM EST THU DEC 25 2014

NOTE: "FAIR" INDICATES FEW OR NO CLOUDS BELOW 12,000 FEET WITH NO
SIGNIFICANT WEATHER AND/OR OBSTRUCTIONS TO VISIBILITY.

NOT ALL STATIONS ARE QUALITY CONTROLLED BY THE NATIONAL
WEATHER SERVICE. USE DATA WITH CAUTION...ESPECIALLY
DEWPOINT OBSERVATIONS.

SCZ027-030-031-034>040-042>050-260000-
...SOUTHEAST SOUTH CAROLINA...

CITY           SKY/WX    TMP DP  RH WIND       PRES   REMARKS
N CHARLESTON   PTCLDY    54  40  59 CALM      30.17R
WATERFRONT PRK   N/A     55 N/A N/A CALM        N/A
MOUNT PLEASANT FAIR      48  45  87 CALM      30.18R
PINOPOLIS      NOT AVBL
MONCKS CORNER  FAIR      48  45  87 CALM      30.18R
SUMMERVILLE    FAIR      50  45  81 CALM      30.20R
BEAUFORT MCAS  CLEAR     50  42  74 SW3       30.18R
BEAUFORT ARPT  FAIR      48  45  87 SW3       30.19R
HILTON HEAD IS CLEAR     48  45  87 CALM      30.20R
WALTERBORO     CLEAR     46  46 100 CALM      30.20R
ALLENDALE      FAIR      48  41  76 CALM      30.20R

...SOUTHERN MIDLANDS AND PEE DEE...

CITY           SKY/WX    TMP DP  RH WIND       PRES   REMARKS
GEORGETOWN     NOT AVBL
KINGSTREE      NOT AVBL
ORANGEBURG     CLEAR     53  38  56 W5        30.18R
BARNWELL         N/A     46  43  87 NW3       30.22R
AIKEN          FAIR      46  37  71 W3        30.25R
MANNING        FAIR      48  48 100 CALM      30.18R
COLUMBIA       CLEAR     53  38  56 NW5       30.19R
SUMTER         CLEAR     51  40  65 W5        30.16R
FLORENCE       CLEAR     53  42  66 CALM      30.15R
MYRTLE BEACH   CLEAR     52  45  76 W6        30.16R
N MYRTLE BEACH CLEAR     50  45  83 CALM      30.15R

$$

GAZ063-065-086>088-099>101-113>116-118-119-134>141-150-260000-
...SOUTHEAST GEORGIA...

CITY           SKY/WX    TMP DP  RH WIND       PRES   REMARKS
SAVANNAH ARPT  PTCLDY    53  38  56 W3        30.20R
HUNTER AAF     CLEAR     51  42  71 W3        30.18R
FORT STEWART   CLEAR     51  43  74 CALM      30.19R
STATESBORO     CLEAR     45  45 100 CALM      30.21R
SYLVANIA       CLEAR     49  45  87 NW5       30.21R
CLAXTON        FAIR      46  45  93 CALM      30.21R

...CSRA...CENTRAL AND FAR SOUTHEAST GEORGIA...

CITY           SKY/WX    TMP DP  RH WIND       PRES   REMARKS
THOMSON        CLEAR     48  44  85 CALM      30.26R
AUGUSTA-BUSH   CLEAR     49  39  68 NW5       30.21R
AUGUSTA-DANIEL CLEAR     53  37  54 NW5       30.21R
SWAINSBORO     FAIR      46  45  93 CALM      30.23R
VIDALIA        CLEAR     50  41  71 W3        30.22R
EASTMAN        FAIR      47  43  84 CALM      30.25R
HAZLEHURST     FAIR      51  45  81 CALM      30.22R
ALMA           CLEAR     49  41  74 CALM      30.21R
WAYCROSS       CLEAR     55  45  69 NW5       30.22R
JESUP          FAIR      50  46  87 CALM      30.22R
BAXLEY         FAIR      52  45  76 CALM      30.22R
BRUNSWICK      CLEAR     48  43  81 CALM      30.22R
SAINT SIMONS   CLEAR     52  43  71 CALM      30.20R

$$

SCZ027-028-034-036>038-045-046-048>050-GAZ119-141-260000-
...LAKE AND SUPPLEMENTAL COASTAL OBSERVATIONS...

STATION/POSITION TIME  TEMP    WIND        PRES    WAVE   SWELL
                       AIR SEA DIR/SP/G            HT/PER HT/PER/DIR
                 (UTC) (F)     (DEG/KT/KT) (MB)    (FT/S) (FT/S/D)
UPR LAKE MARION  NOT AVBL
WINYAH BAY       2300   51     310/  3     1020.0S
LAKE MURRAY      2200   54     250/  5/  6 1021.0R
ACE BASIN NERRS  2300   50        CALM     1021.0S
FORT PULASKI     2300   55 56  260/  4/  5 1022.9R
SAPELO ISLAND    2300   50        CALM     1022.0S

$$

ANZ835-935-AMZ111-154-330-350-352-354-370-450-454-472-260000-
...C-MAN AND BUOY OBSERVATIONS...

STATION/POSITION TIME  TEMP    WIND        PRES    WAVE   SWELL
                       AIR SEA DIR/SP/G            HT/PER HT/PER/DIR
                 (UTC) (F)     (DEG/KT/KT) (MB)    (FT/S) (FT/S/D)
BUOY 41004       2300   57 71  320/  6/ 10 1021.4R   3/ 6   3/ 6
BUOY 41008       2300   55 58  220/  4/  6 1022.5R   1/ 8   2/100/ 8
FOLLY BEACH CMAN 2300   55     240/  3/  3 1022.3R
CAPERS NEARSHORE 2200   55     220/  8/ 10   N/A
FRIPP NEARSHORE  NOT AVBL


STATION/POSITION TIME  TEMP    WIND        PRES    WAVE   SWELL
                       AIR SEA DIR/SP/G            HT/PER HT/PER/DIR
                 (UTC) (F)     (DEG/KT/KT) (MB)    (FT/S) (FT/S/D)
5E ST. MARYS GA  2300      60                N/A     1/ 9
FRYING PAN BUOY  2300   58 70  290/  8/ 16 1021.5R   5/ 8   5/170/ 8
BUOY 41025       2300   56                 1020.6R   5/ 9
CAPE LOOKOUT NC  2300   56     350/  4/  5 1020.7R
BUOY 41002       2214   70 75  310/ 16/ 21 1020.3R   8/ 8   3/ 70/13
BUOY 41010       2300   69 76   20/  6/ 12 1021.5S   5/ 7
ST AUGUSTINE FL  2300   57      50/  2/  3 1023.1R


$$


USA.gov is the U.S. government's official web portal to all federal, state and local government web resources and services.